LNAEG ENBR-ENHD

Flight info

Callsign LNAEG
Flight time 0h 23m
Altitude 17000
Route BEGOD
Aircraft PC24/M-SBDGIRWY/LB2

Departure

Time 2026-04-25 21:42
Airport Bergen Airport, Flesland (ENBR)

Arrival

Time 2026-04-25 22:05
Airport Haugesund Airport, Karmøy (ENHD)
Time Latitude Longitude Altitude Speed Heading
2026-04-25 21:31 60.29645 5.22254 144 ft 0 kts 260°
2026-04-25 21:34 60.29644 5.22250 144 ft 0 kts 260°
2026-04-25 21:34 60.29644 5.22246 144 ft 0 kts 260°
2026-04-25 21:35 60.29630 5.22180 144 ft 0 kts 259°
2026-04-25 21:35 60.29660 5.22153 143 ft 9 kts 352°
2026-04-25 21:35 60.29729 5.22084 143 ft 10 kts 282°
2026-04-25 21:35 60.29691 5.22021 143 ft 8 kts 175°
2026-04-25 21:36 60.29636 5.22037 144 ft 9 kts 171°
2026-04-25 21:36 60.29561 5.22062 147 ft 13 kts 171°
2026-04-25 21:36 60.29470 5.22091 151 ft 13 kts 170°
2026-04-25 21:36 60.29361 5.22131 155 ft 17 kts 170°
2026-04-25 21:37 60.29238 5.22171 158 ft 19 kts 170°
2026-04-25 21:37 60.29168 5.22196 158 ft 21 kts 170°
2026-04-25 21:37 60.29038 5.22239 158 ft 22 kts 171°
2026-04-25 21:37 60.28891 5.22288 157 ft 21 kts 170°
2026-04-25 21:38 60.28751 5.22334 158 ft 19 kts 171°
2026-04-25 21:38 60.28627 5.22375 161 ft 17 kts 170°
2026-04-25 21:38 60.28506 5.22418 159 ft 18 kts 170°
2026-04-25 21:38 60.28377 5.22461 156 ft 20 kts 170°
2026-04-25 21:39 60.28272 5.22340 149 ft 22 kts 259°
2026-04-25 21:39 60.28306 5.22134 154 ft 14 kts
2026-04-25 21:39 60.28369 5.22144 155 ft 0 kts 351°
2026-04-25 21:41 60.28666 5.22044 158 ft 88 kts 350°
2026-04-25 21:42 60.29509 5.21774 268 ft 147 kts 351°
2026-04-25 21:42 60.30595 5.21519 1114 ft 165 kts 352°
2026-04-25 21:42 60.31787 5.21085 1741 ft 184 kts 349°
2026-04-25 21:42 60.33166 5.20517 1981 ft 219 kts 350°
2026-04-25 21:43 60.34670 5.20006 1828 ft 221 kts 351°
2026-04-25 21:43 60.36205 5.19511 1726 ft 226 kts 351°
2026-04-25 21:43 60.37786 5.18977 1627 ft 233 kts 351°
2026-04-25 21:43 60.39380 5.18432 1534 ft 233 kts 351°
2026-04-25 21:44 60.40975 5.17893 1459 ft 230 kts 351°
2026-04-25 21:44 60.42483 5.17383 2299 ft 220 kts 351°
2026-04-25 21:44 60.45545 5.16185 4671 ft 232 kts 341°
2026-04-25 21:45 60.46955 5.14452 5755 ft 246 kts 322°
2026-04-25 21:45 60.47769 5.12686 6000 ft 264 kts 309°
2026-04-25 21:45 60.48564 5.08083 5991 ft 264 kts 279°
2026-04-25 21:45 60.48363 5.04369 5988 ft 270 kts 257°
2026-04-25 21:46 60.47447 5.01017 5986 ft 277 kts 233°
2026-04-25 21:46 60.45920 4.98620 5988 ft 283 kts 208°
2026-04-25 21:46 60.44012 4.97660 5994 ft 286 kts 182°
2026-04-25 21:46 60.42028 4.97955 6010 ft 286 kts 173°
2026-04-25 21:47 60.40086 4.98403 6554 ft 274 kts 173°
2026-04-25 21:47 60.38143 4.98835 7438 ft 290 kts 174°
2026-04-25 21:47 60.36076 4.99262 8342 ft 307 kts 175°
2026-04-25 21:47 60.33907 4.99705 9392 ft 319 kts 175°
2026-04-25 21:48 60.31656 5.00174 10444 ft 331 kts 175°
2026-04-25 21:48 60.29342 5.00656 11555 ft 338 kts 176°
2026-04-25 21:48 60.26989 5.01230 12709 ft 343 kts 172°
2026-04-25 21:48 60.24638 5.02188 13887 ft 346 kts 170°
2026-04-25 21:49 60.22257 5.03153 14843 ft 355 kts 171°
2026-04-25 21:49 60.19752 5.04126 15241 ft 382 kts 171°
2026-04-25 21:49 60.17058 5.05171 15234 ft 401 kts 171°
2026-04-25 21:49 60.14296 5.05976 15227 ft 403 kts 177°
2026-04-25 21:50 60.11487 5.06526 15215 ft 408 kts 177°
2026-04-25 21:50 60.08729 5.07125 15209 ft 385 kts 176°
2026-04-25 21:50 60.06154 5.07702 15195 ft 360 kts 177°
2026-04-25 21:50 60.04538 5.08045 15193 ft 346 kts 177°
2026-04-25 21:51 60.01447 5.08687 15190 ft 323 kts 178°
2026-04-25 21:51 59.99256 5.09149 15190 ft 310 kts 178°
2026-04-25 21:51 59.97148 5.09596 15191 ft 299 kts 178°
2026-04-25 21:51 59.95110 5.10027 15196 ft 290 kts 178°
2026-04-25 21:52 59.93128 5.10444 15198 ft 282 kts 178°
2026-04-25 21:52 59.91196 5.10850 15193 ft 276 kts 178°
2026-04-25 21:52 59.89304 5.11248 15197 ft 270 kts 178°
2026-04-25 21:52 59.87449 5.11639 15197 ft 266 kts 178°
2026-04-25 21:53 59.85624 5.12019 15198 ft 262 kts 179°
2026-04-25 21:53 59.83824 5.12398 15200 ft 258 kts 179°
2026-04-25 21:53 59.82049 5.12770 15141 ft 258 kts 179°
2026-04-25 21:53 59.80191 5.13147 14659 ft 278 kts 178°
2026-04-25 21:54 59.78218 5.13507 14200 ft 290 kts 180°
2026-04-25 21:54 59.76166 5.13827 13721 ft 301 kts 179°
2026-04-25 21:54 59.74052 5.14211 13213 ft 309 kts 178°
2026-04-25 21:54 59.71893 5.14577 12714 ft 314 kts 179°
2026-04-25 21:55 59.69774 5.15208 12465 ft 311 kts 165°
2026-04-25 21:55 59.67753 5.16858 12104 ft 311 kts 154°
2026-04-25 21:55 59.65779 5.18626 11695 ft 312 kts 158°
2026-04-25 21:55 59.63728 5.20061 11278 ft 315 kts 163°
2026-04-25 21:56 59.61536 5.21406 10836 ft 334 kts 163°
2026-04-25 21:56 59.60089 5.22362 10545 ft 328 kts 161°
2026-04-25 21:56 59.57309 5.24331 9927 ft 308 kts 160°
2026-04-25 21:56 59.55330 5.25693 9502 ft 295 kts 161°
2026-04-25 21:57 59.53408 5.26987 9108 ft 290 kts 161°
2026-04-25 21:57 59.51507 5.28274 8724 ft 288 kts 160°
2026-04-25 21:57 59.49620 5.29560 8336 ft 286 kts 160°
2026-04-25 21:57 59.47751 5.30830 7949 ft 282 kts 160°
2026-04-25 21:58 59.45911 5.32075 7572 ft 278 kts 160°
2026-04-25 21:58 59.44097 5.33305 7200 ft 274 kts 160°
2026-04-25 21:58 59.42302 5.34518 6824 ft 271 kts 160°
2026-04-25 21:58 59.40533 5.35714 6451 ft 267 kts 160°
2026-04-25 21:59 59.38808 5.36878 6093 ft 265 kts 160°
2026-04-25 21:59 59.37069 5.38051 5737 ft 264 kts 160°
2026-04-25 21:59 59.35331 5.39222 5381 ft 263 kts 160°
2026-04-25 22:00 59.31945 5.41497 4665 ft 245 kts 160°
2026-04-25 22:00 59.30385 5.42544 4347 ft 236 kts 160°
2026-04-25 22:00 59.28837 5.43583 4028 ft 229 kts 160°
2026-04-25 22:00 59.27350 5.44579 3726 ft 223 kts 160°
2026-04-25 22:01 59.25853 5.44968 3414 ft 216 kts 192°
2026-04-25 22:01 59.24644 5.43482 3140 ft 206 kts 242°
2026-04-25 22:01 59.24384 5.40978 3029 ft 180 kts 289°
2026-04-25 22:01 59.24530 5.40259 2985 ft 173 kts 306°
2026-04-25 22:02 59.25996 5.37730 2693 ft 174 kts 322°
2026-04-25 22:02 59.26869 5.36131 2465 ft 171 kts 319°
2026-04-25 22:02 59.27702 5.34497 2216 ft 169 kts 319°
2026-04-25 22:02 59.28532 5.32847 1883 ft 171 kts 318°
2026-04-25 22:03 59.29363 5.31180 1537 ft 169 kts 317°
2026-04-25 22:03 59.30129 5.29579 1159 ft 157 kts 317°
2026-04-25 22:03 59.30840 5.28161 966 ft 130 kts 318°
2026-04-25 22:03 59.31436 5.26967 739 ft 117 kts 319°
2026-04-25 22:04 59.32002 5.25862 584 ft 112 kts 320°
2026-04-25 22:04 59.32535 5.24826 443 ft 105 kts 318°
2026-04-25 22:04 59.33046 5.23793 330 ft 107 kts 318°
2026-04-25 22:04 59.33580 5.22764 177 ft 108 kts 315°
2026-04-25 22:05 59.34056 5.21802 85 ft 87 kts 315°
2026-04-25 22:05 59.34340 5.21232 82 ft 26 kts 314°
2026-04-25 22:05 59.34459 5.21000 78 ft 22 kts 313°
2026-04-25 22:05 59.34556 5.20798 75 ft 18 kts 315°
2026-04-25 22:06 59.34592 5.20705 75 ft 5 kts 153°
2026-04-25 22:06 59.34557 5.20778 75 ft 15 kts 131°
2026-04-25 22:06 59.34471 5.20970 74 ft 20 kts 134°
2026-04-25 22:06 59.34375 5.21159 80 ft 19 kts 134°
2026-04-25 22:07 59.34364 5.21339 81 ft 16 kts 43°
2026-04-25 22:07 59.34447 5.21435 80 ft 12 kts 339°
2026-04-25 22:07 59.34495 5.21378 79 ft 0 kts 315°